Location: Gälforsberget
(66.6500°N, 22.4167°E)
Time: 17:43:03
(UTC+00:00)

DELTA 2 DEB (DPAF) - Pass Details

Date: 11 April 2026
Orbit: 477 x 486 km, 98.3° (Epoch: 16 May)

Event Time Altitude Azimuth Distance (km) Brightness Sun altitude
Rises 23:14:45 0° 22° (NNE) 2,595 9.0 -14.3°
Reaches altitude 10° 23:16:53 10° 27° (NNE) 1,704 7.6 -14.3°
Maximum altitude 23:20:29 55° 105° (ESE) 602 3.9 -14.2°
Enters shadow 23:22:21 25° 174° (S) 1,020 4.6 -14.2°
